Regional Weather Roundup
Issued by NWS Newport/Morehead, NC

Home | Current Version | Previous Version | Text Only | Print | Product List | Glossary On
Versions: 1 2 3 4 5 6 7 8 9 10 11 12 13 14 15 16 17 18 19 20 21 22 23 24 25 26 27 28 29 30 31 32 33 34 35 36 37 38 39 40 41 42 43 44 45 46 47 48 49 50
000
ASUS42 KMHX 012325
RWRMHX
WEATHER ROUNDUP FOR EASTERN NORTH CAROLINA
NATIONAL WEATHER SERVICE NEWPORT/MOREHEAD CITY NC
700 PM EDT TUE SEP 01 2015

NOTE: "FAIR" INDICATES FEW OR NO CLOUDS BELOW 12,000 FEET
WITH NO SIGNIFICANT WEATHER AND/OR OBSTRUCTIONS TO VISIBILITY

NCZ015>017-031-032-045>047-102-103-020000-
NORTH COAST

CITY           SKY/WX    TMP DP  RH WIND       PRES   REMARKS
EDENTON        CLEAR     80  69  69 CALM      30.04S
ELIZABETH CITY CLEAR     81  73  76 S5        30.03S
KITTY HAWK     CLEAR     81  70  69 CALM      30.03S
MANTEO         CLEAR     78  72  81 CALM      30.04S

$$

NCZ045>047-081-094-103-104-020000-
CENTRAL COAST

CITY           SKY/WX    TMP DP  RH WIND       PRES   REMARKS
FRISCO         CLEAR     81  72  74 CALM      30.04S
SWANQUARTER      N/A     81 N/A N/A E5        30.00S

$$

NCZ095-097-098-100-101-020000-
SOUTHERN COAST

CITY           SKY/WX    TMP DP  RH WIND       PRES   REMARKS
BEAUFORT       CLEAR     79  75  87 SW9       30.04S
CEDAR ISLAND     N/A     82 N/A N/A S1        30.09S
JACKSONVILLE   PTCLDY    82  70  66 SW3       30.04S
PINEY ISLAND   PTCLDY   N/A N/A N/A SE5       30.04R
WILMINGTON     CLEAR     81  74  79 S7        30.05S


$$

NCZ011>013-027>030-043-044-078>080-089-090>093-098-020000-
COASTAL PLAIN

CITY           SKY/WX    TMP DP  RH WIND       PRES   REMARKS
AHOSKIE        CLEAR     78  72  82 CALM      30.04S
CLINTON        CLEAR     83  74  73 CALM      30.05S
ELIZABETHTOWN  PTCLDY    87  69  54 CALM      30.05S
GOLDSBORO      CLEAR     86  72  63 SE5       30.03S
GREENVILLE     CLEAR     81  73  78 CALM      30.06S
HAVELOCK       CLEAR     85  69  58 NW7       30.05R
KENANSVILLE      N/A     79  74  85 CALM      30.05S
KINSTON        CLEAR     84  72  65 CALM      30.05S
NEW BERN       MOCLDY    83  72  69 CALM      30.05S
RICHLANDS      CLEAR     81  70  69 CALM      30.05S
ROCKY MOUNT    CLEAR     88  69  53 E3        30.04S
WASHINGTON     CLEAR     80  73  77 CALM      30.03F
WHITEVILLE     CLOUDY    85  73  65 S8        30.05R

$$

AMZ130-135-150-152-154-156-158-170-250-252-270-ANZ085-086-088-633-658-670-020000-
MARINE OBSERVATIONS

STATION/POSITION TIME  TEMP    WIND        PRES    WAVE   SWELL
                       AIR SEA DIR/SP/G            HT/PER HT/PER
                 (UTC) (F)     (DEG/KT/KT) (MB)    (FT/S) (FT/S)
CHESAPEAKE LIGHT 2300   78     170/  2/  2 1017.8
64 E VA BEACH    2250   79 80  360/  4/  6 1016.8    2/ 9   2/ 9
DUCK             2300   82 79  110/  2/  4 1016.4
2 E DUCK         2211      82                N/A     2/10
OREGON INLET     2300   79 81   20/  3/  4 1017.2
13E OREGON INLT  2300      80                N/A     2/11
HATTERAS CG      2300   81 82  350/  3/  5 1017.1
DIAMOND BUOY     2250   80 84   20/  6/  8 1017.4    2/ 6   2/ 6
CAPE LOOKOUT     2300   80     230/  7/  9 1017.0
BEAUFORT LAB     2300   81 80  220/  5/  9 1016.7
30 SE NEW RVR IN 2208   81 83  230/  6/  8 1018.0
30 SE NEW RVR IN 2225      83                N/A     3/ 7
27 SE WRIGHTSVLE 2300   78 83  230/  6/  8   N/A
5 SE WRIGHTSVLE  2208   81 83  210/ 10/ 14 1017.8
225 S CAPE HAT   2250   84 85  240/  6/ 10 1018.0    3/ 7   3/ 7
41 SE CHARLESTON 2250   82 83   90/  6/  8 1017.9    2/ 7   2/ 7

$$



USA.gov is the U.S. government's official web portal to all federal, state and local government web resources and services.